Location: Unspecified
(41.5516°N, 88.1098°W)
Time: 09:01:55
(UTC-05:00)

Cosmos 2058 - Visible Passes

Search period start: 29 August 2014 00:00
Search period end: 08 September 2014 00:00
Orbit: 570 x 595 km, 82.5° (Epoch: 26 August)

Date Brightness Start Highest point End Pass type
(mag) Time Alt. Az. Time Alt. Az. Time Alt. Az.
29 Aug 5.9 23:27:56 10° N 23:28:18 12° N 23:28:18 12° N visible
30 Aug 6.0 23:33:41 10° N 23:34:02 12° N 23:34:02 12° N visible
31 Aug 6.1 23:39:30 10° NNW 23:39:46 12° NNW 23:39:46 12° NNW visible
01 Sep 6.2 23:45:25 10° NNW 23:45:31 11° NNW 23:45:31 11° NNW visible
03 Sep 5.7 22:20:22 10° NNE 22:20:39 11° NNE 22:20:39 11° NNE visible
04 Sep 5.6 22:25:53 10° N 22:26:26 13° NNE 22:26:26 13° NNE visible
05 Sep 5.6 22:31:31 10° N 22:32:12 14° N 22:32:12 14° N visible
06 Sep 5.6 22:37:14 10° N 22:38:00 15° N 22:38:00 15° N visible
07 Sep 5.7 22:43:02 10° NNW 22:43:48 15° NNW 22:43:48 15° NNW visible
